Location: Sevilla
(37.3933°N, 5.9839°W)
Time: 04:25:38
(UTC+02:00)

Tiros 1 despin weight - Pass Details

Date: 30 June 2024
Orbit: 576 x 620 km, 48.2° (Epoch: 22 July)

Event Time Altitude Azimuth Distance (km) Brightness Sun altitude
Rises 11:11:30 0° 236° (SW) 2,846 ? 45.8°
Reaches altitude 10° 11:13:47 10° 237° (WSW) 1,952 ? 46.3°
Maximum altitude 11:18:17 84° 325° (NW) 620 ? 47.2°
Drops below altitude 10° 11:22:51 10° 55° (NE) 1,982 ? 48.1°
Sets 11:25:11 0° 56° (NE) 2,893 ? 48.5°
